Voltar ao catálogo

OPS 4682 DEB

AtivoPO
NORAD 38458·DEBRIS·🇺🇸 United States

Lançado Apr 3, 1965 de Vandenberg Space Force Base

Loading…

Próximas Passagens (próximas 24 horas)

TLE

AtualizadoSource: Space-Track

Época: Sep 12, 2026, 18:22 UTC

1 38458U 65027FP  26255.76531284  .00000253  00000-0  89246-3 0  9996
2 38458  90.2512   8.7847 0028752  55.7472 304.6364 12.93453538624985

Acompanhe OPS 4682 DEB em tempo real com AllMySat

Download on the App Store